STARLINK-11267, 60994

Orbit data source: Space-Track

STARLINK-11267, 60994 is a payload satellite owned by SpaceX/Seattle (US) in LEO that was launched on Thu, 05 Sep 2024 UTC via an FALCON 9 launch vehicle from the Air Force Eastern Test Range (AFETR). Payload-class satellites include a variety of spacecraft equipped with specific instruments for various scientific and technological missions. These include communications satellites like Starlink; space stations such as the ISS; scientific satellites like the Hubble; Earth observation satellites from companies like Planet Labs, Umbra, and HawkEye 360; GPS; miniature CubeSats for education and research; and military/defense satellites.

Loading next visibility...
Identifier
60994, 2024-158E
Orbit
LEO
Country
Flag of USUS
Related business
Manufacturer
SpaceX/Seattle
Mission
Operational Commercial Communications
Bus & Motor
STARLINK V2MD, Unknown motor
Mass
960 kg wet, ~910 kg dry
Launch date (UTC)
2024-09-05 (1 year ago)
Launch vehicle
FALCON 9
Launch site
Air Force Eastern Test Range (AFETR)
Object type
Payload
Rocket body
Debris
Shape & HBR
Box + 2 Pan, 14.5 m
Radar Cross Section
36.964 m², Large (>1 m²)

Expand to show TLE details & history
Last TLE update: 14 hours ago

TLE from 14 hours ago
0 STARLINK-11267
1 60994U 24158E   25260.71967474 -.00001004  00000-0 -34210-5 0  9990
2 60994  53.1594  54.2495 0001279  58.6066 301.5077 15.69730001 60423
Epoch: 2025-09-17T17:16Z
TLE epoch observation values (Epoch: 2025-09-17T17:16:19.897Z)
Latitude
-0.00002°
Longitude
158.275°
Altitude
360.134 km
Speed
7.695 km/s
True Right ascension
03h 36m 59s
True Declination
0° 00' 00"
Sunlit
Object was in full shadow at epoch
Visualization orbit readout
Latitude
Unknown
Longitude
Unknown
Altitude
Unknown
Speed
Unknown
Apparent Right ascension
Unknown
Apparent Declination
Unknown
Sunlit
N/A
Visualization observer readout
Local Sidereal Time
00:21:46
Azimuth
Unknown
Elevation
Unknown
Doppler factor
Unknown
Orbital elements
Apogee altitude
360.792 km
Perigee altitude
359.069 km
Semi-major axis
6,738.067 km
Eccentricity
0.00013
Inclination
53.1594°
RAAN
54.2495°
Arg. of periapsis
58.6066°
True anomaly
301.4952°
Mean anomaly
301.5077°
Eccentric anomaly
301.50145°
Mean motion
3.9241 °/min
Orbital period
91.74 mins
BSTAR
-0.000003421
Loading maneuver chart data...
Computing Atmospheric mass density...
Loading historical data...
Loading historical data...
Loading historical data...
Loading historical data...
Loading historical data...
Loading historical data...
Loading historical data...

Documentation

Showing up to 5 results
|